Akron Canton, OH

8:04 PM EDT on April 23, 2018 (GMT -0400)
Akron-Canton Regional

Weather History for KCAK - August, 2014

Change the Weather History Date:

Friday, August 29, 2014

  Actual Average Record
Temperature  
Mean Temperature 68 °F -  
Max Temperature 81 °F 79 °F 96 °F (1953)
Min Temperature 54 °F 59 °F 41 °F (1982)
Cooling Degree Days 3    
Month to date cooling degree days 179  
Year to date cooling degree days 615  
Since 1 June cooling degree days 539  
Growing Degree Days 18 (Base 50)    
Moisture  
Dew Point 50 °F    
Average Humidity 56    
Maximum Humidity 83    
Minimum Humidity 28    
Precipitation  
Precipitation 0.00 in - - ()
Month to date precipitation 5.24  
Year to date precipitation 35.31  
Snow  
Snow 0.00 in - - ()
Month to date snowfall 0.0  
Since 1 June snowfall 0.0  
Snow Depth 0.00 in    
Sea Level Pressure  
Sea Level Pressure 30.13 in    
Wind  
Wind Speed 6 mph (ESE)    
Max Wind Speed 10 mph    
Max Gust Speed 23 mph    
Visibility 10 miles    
Events      
T = Trace of Precipitation, MM = Missing Value Source: NWS Daily Summary

Daily Weather History Graph

Daily Weather History Graph

Search for Another Location

Airport or City:

Astronomy

Aug. 29, 2014 Rise Set
Actual Time 6:49 AM EDT 8:03 PM EDT
Civil Twilight 6:21 AM EDT 8:31 PM EDT
Nautical Twilight 5:47 AM EDT 9:05 PM EDT
Astronomical Twilight 5:11 AM EDT 9:40 PM EDT
Moon 10:39 AM EDT (8/29) 9:57 PM EDT (8/29)
Length of Visible Light 14h 10m
Length of Day
13h 13m
Waxing Crescent, 15% of the Moon is Illuminated
Aug 29
Waxing Crescent
Sep 2
First Quarter
Sep 8
Full
Sep 15
Last Quarter
Sep 24
New

Hourly Weather History & Observations

Time (EDT) Temp. Dew Point Humidity Pressure Visibility Wind Dir Wind Speed Gust Speed Precip Events Conditions
12:51 AM 55.9 °F 50.0 °F 80% 30.16 in 10.0 mi East 5.8 mph - N/A   Partly Cloudy
1:51 AM 55.0 °F 48.9 °F 80% 30.14 in 10.0 mi ENE 3.5 mph - N/A   Partly Cloudy
2:51 AM 55.9 °F 50.0 °F 80% 30.14 in 10.0 mi East 3.5 mph - N/A   Clear
3:51 AM 54.0 °F 48.9 °F 83% 30.14 in 10.0 mi East 4.6 mph - N/A   Clear
4:51 AM 55.0 °F 48.9 °F 80% 30.13 in 10.0 mi ESE 5.8 mph - N/A   Clear
5:51 AM 55.0 °F 48.0 °F 77% 30.14 in 10.0 mi ESE 6.9 mph - N/A   Clear
6:51 AM 54.0 °F 48.0 °F 80% 30.16 in 10.0 mi East 5.8 mph - N/A   Partly Cloudy
7:51 AM 55.0 °F 48.0 °F 77% 30.17 in 10.0 mi East 6.9 mph - N/A   Partly Cloudy
8:51 AM 60.1 °F 50.0 °F 69% 30.17 in 10.0 mi ESE 8.1 mph - N/A   Scattered Clouds
9:51 AM 64.9 °F 53.1 °F 65% 30.16 in 10.0 mi ESE 5.8 mph - N/A   Scattered Clouds
10:51 AM 68.0 °F 51.8 °F 56% 30.17 in 10.0 mi South 6.9 mph - N/A   Scattered Clouds
11:51 AM 71.1 °F 50.0 °F 47% 30.16 in 10.0 mi Variable 5.8 mph - N/A   Scattered Clouds
12:51 PM 73.9 °F 48.9 °F 41% 30.14 in 10.0 mi ESE 8.1 mph - N/A   Scattered Clouds
1:51 PM 78.1 °F 46.9 °F 33% 30.12 in 10.0 mi Variable 6.9 mph - N/A   Scattered Clouds
2:51 PM 79.0 °F 44.1 °F 29% 30.11 in 10.0 mi Calm Calm - N/A   Scattered Clouds
3:51 PM 80.1 °F 44.1 °F 28% 30.10 in 10.0 mi Variable 3.5 mph - N/A   Mostly Cloudy
4:51 PM 80.1 °F 46.9 °F 31% 30.08 in 10.0 mi ESE 6.9 mph - N/A   Mostly Cloudy
5:51 PM 80.6 °F 46.4 °F 30% 30.09 in 10.0 mi South 4.6 mph - N/A   Scattered Clouds
6:51 PM 78.1 °F 50.0 °F 37% 30.08 in 10.0 mi SE 6.9 mph - N/A   Scattered Clouds
7:51 PM 75.0 °F 51.1 °F 43% 30.08 in 10.0 mi SE 4.6 mph - N/A   Partly Cloudy
8:51 PM 72.0 °F 53.1 °F 51% 30.08 in 10.0 mi SE 4.6 mph - N/A   Partly Cloudy
9:51 PM 71.1 °F 55.0 °F 57% 30.09 in 10.0 mi SE 6.9 mph - N/A   Clear
10:51 PM 69.8 °F 55.4 °F 60% 30.10 in 10.0 mi SE 8.1 mph - N/A   Clear
11:51 PM 69.1 °F 54.0 °F 58% 30.09 in 10.0 mi SE 5.8 mph - N/A   Clear